This is the latest recevied weather packets stored in our database for station/object N3AVN. If no packets are shown the sender has not sent any weather packets the latest 10 day(s).
| Time | Temp. | Humidity | Pressure | Rain* | Wind** | Luminosity | Snow |
|---|---|---|---|---|---|---|---|
| 1778073157 | 16.67° C | 83% | 1007.8 hPa | 0 mm | - | 154 W/m² | - |
| 1778072854 | 16.67° C | 84% | 1008.1 hPa | 0 mm | - | 124 W/m² | - |
| 1778072551 | 16.11° C | 85% | 1007.9 hPa | 0 mm | - | 143 W/m² | - |
| 1778072249 | 16.11° C | 86% | 1008 hPa | 0 mm | - | 106 W/m² | - |
| 1778071947 | 16.11° C | 86% | 1007.8 hPa | 0 mm | - | 94 W/m² | - |
| 1778071645 | 16.11° C | 86% | 1007.8 hPa | 0 mm | - | 70 W/m² | - |
| 1778071343 | 16.11° C | 86% | 1008.4 hPa | 0 mm | - | 82 W/m² | - |
| 1778071040 | 16.11° C | 86% | 1008.3 hPa | 0 mm | - | 93 W/m² | - |
| 1778070739 | 16.11° C | 86% | 1008.5 hPa | 0 mm | - | 102 W/m² | - |
| 1778070435 | 15.56° C | 87% | 1008.2 hPa | 0 mm | - | 116 W/m² | - |
| 1778070132 | 15.56° C | 86% | 1008.5 hPa | 0 mm | - | 86 W/m² | - |
| 1778069830 | 15.56° C | 87% | 1008.3 hPa | 0 mm | - | 81 W/m² | - |
| 1778069526 | 15.56° C | 87% | 1008.7 hPa | 0 mm | - | 87 W/m² | - |
| 1778069224 | 15.56° C | 87% | 1008.3 hPa | 0 mm | - | 97 W/m² | - |
| 1778068921 | 15.56° C | 88% | 1008 hPa | 0 mm | - | 88 W/m² | - |
| 1778068620 | 15.56° C | 88% | 1008.3 hPa | 0 mm | - | 66 W/m² | - |
| 1778068318 | 15° C | 87% | 1008.3 hPa | 0 mm | - | 51 W/m² | - |
| 1778068014 | 15.56° C | 87% | 1008.3 hPa | 0 mm | - | 78 W/m² | - |
| 1778067712 | 15° C | 88% | 1008.3 hPa | 0 mm | - | 73 W/m² | - |
| 1778067411 | 15° C | 87% | 1008.2 hPa | 0 mm | - | 60 W/m² | - |
| 1778067108 | 15° C | 88% | 1008.6 hPa | 0 mm | - | 69 W/m² | - |
| 1778066803 | 15° C | 88% | 1008.5 hPa | 0 mm | - | 71 W/m² | - |
| 1778066502 | 15° C | 88% | 1008.3 hPa | 0 mm | - | 76 W/m² | - |
| 1778066199 | 15° C | 89% | 1008.1 hPa | 0 mm | - | 77 W/m² | - |
| 1778065896 | 15° C | 89% | 1008.2 hPa | 0 mm | - | 84 W/m² | - |
* Rain latest hour (hover to see other rain measurements)
** Current wind speed in m/s (hover to see current wind gust speed)